Weather History for Ord, NE

Change the Weather History Date:

Saturday, February 9, 2013

  Actual Average Record
Temperature  
Mean Temperature 40 °F 26 °F  
Max Temperature 52 °F 39 °F 59 °F (1999)
Min Temperature 28 °F 14 °F -2 °F (2005)
Degree Days  
Heating Degree Days 25    
Month to date heating degree days 256  
Cooling Degree Days 0    
Month to date cooling degree days 0  
Year to date cooling degree days 0  
Moisture  
Dew Point 33 °F    
Average Humidity 66    
Maximum Humidity 93    
Minimum Humidity 38    
Precipitation  
Precipitation 0.10 in 0.02 in 0.55 in (1960)
Month to date precipitation 0.10 0.16  
Year to date precipitation 0.24 0.53  
Sea Level Pressure  
Sea Level Pressure 29.73 in    
Wind  
Wind Speed 11 mph (SSE)    
Max Wind Speed 24 mph    
Max Gust Speed 31 mph    
Visibility 6 miles    
Events Rain    
T = Trace of Precipitation, MM = Missing Value Source: NWS Daily Summary

Daily Weather History Graph

Daily Weather History Graph

Search for Another Location

Airport:

Trip Planner

Search our weather history database for the weather conditions in past years. The results will help you decide how hot, cold, wet, or windy it might be!

Date:

Astronomy

Feb. 09, 2013 Rise Set
Actual Time 7:38 AM CST 6:02 PM CST
Civil Twilight 7:09 AM CST 6:30 PM CST
Nautical Twilight 6:36 AM CST 7:03 PM CST
Astronomical Twilight 6:04 AM CST 7:36 PM CST
Moon 6:51 AM CST (2/9) 5:47 PM CST (2/9)
Length of Visible Light 11h 21m
Length of Day
10h 23m
Waning Crescent, 0% of the Moon is Illuminated
Feb 9
Waning Crescent
Feb 10
New
Feb 17
First Quarter
Feb 25
Full
Mar 4
Last Quarter

Hourly Weather History & Observations

Time (CST) Temp. Windchill Dew Point Humidity Pressure Visibility Wind Dir Wind Speed Gust Speed Precip Events Conditions
12:53 AM 28.9 °F 19.8 °F 25.0 °F 85% 30.01 in 6.0 mi SE 10.4 mph - N/A   Clear
1:53 AM 28.0 °F 21.7 °F 25.0 °F 88% 29.98 in 6.0 mi SE 5.8 mph - N/A   Clear
2:53 AM 28.9 °F 19.8 °F 26.1 °F 89% 29.96 in 6.0 mi SE 10.4 mph - N/A   Clear
3:53 AM 28.0 °F 18.6 °F 25.0 °F 88% 29.94 in 6.0 mi SSE 10.4 mph - N/A   Clear
4:53 AM 28.9 °F 18.6 °F 26.1 °F 89% 29.92 in 6.0 mi SSE 12.7 mph - N/A   Clear
5:53 AM 28.9 °F 19.2 °F 26.1 °F 89% 29.91 in 6.0 mi SSE 11.5 mph - N/A   Clear
6:53 AM 28.0 °F 19.3 °F 26.1 °F 92% 29.92 in 5.0 mi SSE 9.2 mph - N/A   Clear
7:53 AM 28.0 °F 21.7 °F 25.0 °F 88% 29.92 in 3.0 mi SE 5.8 mph - N/A   Clear
8:53 AM 30.0 °F 23.2 °F 27.0 °F 88% 29.91 in 4.0 mi SE 6.9 mph - N/A   Clear
9:53 AM 35.1 °F 27.4 °F 30.0 °F 82% 29.89 in 5.0 mi South 10.4 mph 19.6 mph N/A   Haze
10:53 AM 41.0 °F 32.8 °F 30.0 °F 65% 29.86 in 8.0 mi South 16.1 mph - N/A   Clear
11:53 AM 46.9 °F - 28.0 °F 48% 29.81 in 10.0 mi South 19.6 mph 26.5 mph N/A   Clear
12:53 PM 51.1 °F - 27.0 °F 39% 29.75 in 10.0 mi South 16.1 mph - N/A   Clear
1:53 PM 50.0 °F - 28.0 °F 43% 29.73 in 10.0 mi SSW 18.4 mph 27.6 mph N/A   Scattered Clouds
2:53 PM 48.9 °F - 30.0 °F 48% 29.69 in 10.0 mi South 18.4 mph 26.5 mph N/A   Scattered Clouds
3:53 PM 48.0 °F - 32.0 °F 54% 29.68 in 10.0 mi SSE 12.7 mph - 0.00 in   Mostly Cloudy
4:39 PM 44.6 °F 39.2 °F 37.4 °F 76% 29.62 in 2.0 mi SE 10.4 mph - 0.05 in Rain Heavy Rain
4:49 PM 44.6 °F 39.7 °F 37.4 °F 76% 29.61 in 7.0 mi SSE 9.2 mph - 0.05 in Rain Light Rain
4:53 PM 44.1 °F 39.5 °F 37.9 °F 79% 29.66 in 10.0 mi SE 8.1 mph - 0.05 in   Overcast
5:53 PM 44.1 °F 40.1 °F 37.9 °F 79% 29.64 in 10.0 mi SE 6.9 mph - N/A   Overcast
6:07 PM 44.6 °F 38.8 °F 39.2 °F 81% 29.59 in 10.0 mi SE 11.5 mph - N/A   Overcast
6:53 PM 44.1 °F 37.7 °F 39.0 °F 82% 29.65 in 10.0 mi SSE 12.7 mph - N/A   Overcast
7:40 PM 42.8 °F 37.5 °F 39.2 °F 87% 29.61 in 2.5 mi SSE 9.2 mph 18.4 mph 0.01 in Rain Light Rain
7:53 PM 42.1 °F 35.7 °F 39.9 °F 92% 29.65 in 1.8 mi SSE 11.5 mph - 0.01 in Rain Light Rain
8:05 PM 42.8 °F 38.0 °F 41.0 °F 93% 29.59 in 2.0 mi SE 8.1 mph - 0.01 in Rain Light Rain
8:17 PM 42.8 °F 38.0 °F 39.2 °F 87% 29.59 in 2.0 mi SE 8.1 mph - 0.02 in Rain Light Rain
8:26 PM 42.8 °F 37.5 °F 39.2 °F 87% 29.59 in 3.0 mi SE 9.2 mph - 0.02 in Rain Light Rain
8:34 PM 42.8 °F 37.0 °F 39.2 °F 87% 29.58 in 4.0 mi SE 10.4 mph - 0.02 in Rain Light Rain
8:53 PM 42.1 °F 36.1 °F 39.9 °F 92% 29.62 in 5.0 mi SSE 10.4 mph - 0.02 in   Overcast
9:30 PM 42.8 °F 36.6 °F 39.2 °F 87% 29.56 in 5.0 mi SSE 11.5 mph - 0.00 in   Overcast
9:53 PM 41.0 °F 35.2 °F 39.0 °F 93% 29.60 in 4.0 mi SE 9.2 mph - 0.00 in   Overcast
10:16 PM 41.0 °F 34.3 °F 39.2 °F 93% 29.54 in 4.0 mi SE 11.5 mph - 0.00 in Rain Light Rain
10:53 PM 39.0 °F 31.8 °F 37.9 °F 96% 29.57 in 3.0 mi ESE 11.5 mph - 0.01 in Rain Light Rain
11:53 PM 37.9 °F 32.1 °F 37.0 °F 97% 29.52 in 5.0 mi SE 8.1 mph - 0.01 in Rain Light Rain